This is the latest recevied weather packets stored in our database for station/object WA6MHA-11. If no packets are shown the sender has not sent any weather packets the latest 10 day(s).
| Time | Temp. | Humidity | Pressure | Rain* | Wind** | Luminosity | Snow |
|---|---|---|---|---|---|---|---|
| 1777655639 | 21.11° C | 44% | 1016.3 hPa | 0 mm | - | - | - |
| 1777655403 | 20.56° C | 44% | 1016.4 hPa | 0 mm | - | - | - |
| 1777655162 | 20.56° C | 45% | 1016.4 hPa | 0 mm | - | - | - |
| 1777653467 | 18.89° C | 47% | 1016.4 hPa | 0 mm | - | - | - |
| 1777653226 | 18.89° C | 48% | 1016.5 hPa | 0 mm | - | - | - |
| 1777652985 | 18.89° C | 48% | 1016.4 hPa | 0 mm | - | - | - |
| 1777652744 | 18.33° C | 48% | 1016.4 hPa | 0 mm | - | - | - |
| 1777652502 | 18.33° C | 48% | 1016.3 hPa | 0 mm | - | - | - |
| 1777652261 | 18.33° C | 48% | 1016.3 hPa | 0 mm | - | - | - |
| 1777652021 | 17.78° C | 49% | 1016.3 hPa | 0 mm | - | - | - |
| 1777651779 | 17.78° C | 49% | 1016.3 hPa | 0 mm | - | - | - |
| 1777651537 | 17.78° C | 49% | 1016.3 hPa | 0 mm | - | - | - |
| 1777651296 | 17.78° C | 50% | 1016.3 hPa | 0 mm | - | - | - |
| 1777651055 | 17.22° C | 50% | 1016.2 hPa | 0 mm | - | - | - |
| 1777650813 | 17.22° C | 50% | 1016.3 hPa | 0 mm | - | - | - |
| 1777650572 | 17.22° C | 50% | 1016.3 hPa | 0 mm | - | - | - |
| 1777650331 | 16.67° C | 51% | 1016.2 hPa | 0 mm | - | - | - |
| 1777650092 | 16.67° C | 51% | 1016.2 hPa | 0 mm | - | - | - |
| 1777649607 | 16.67° C | 51% | 1016 hPa | 0 mm | - | - | - |
| 1777649365 | 16.11° C | 52% | 1016 hPa | 0 mm | - | - | - |
| 1777649124 | 16.11° C | 52% | 1016 hPa | 0 mm | - | - | - |
| 1777648883 | 16.11° C | 52% | 1016 hPa | 0 mm | - | - | - |
| 1777648642 | 15.56° C | 53% | 1016 hPa | 0 mm | - | - | - |
| 1777648401 | 15.56° C | 53% | 1015.9 hPa | 0 mm | - | - | - |
| 1777648160 | 15.56° C | 53% | 1015.9 hPa | 0 mm | - | - | - |
* Rain since midnight (hover to see other rain measurements)
** Current wind speed in m/s (hover to see current wind gust speed)